Weather History for Eagle River, WI

Change the Weather History Date:

Wednesday, January 22, 2014

  Actual Average Record
Temperature  
Mean Temperature 0 °F -  
Max Temperature 1 °F 24 °F 46 °F (2002)
Min Temperature -2 °F 7 °F -18 °F (2004)
Degree Days  
Heating Degree Days 66    
Moisture  
Dew Point -8 °F    
Average Humidity 71    
Maximum Humidity 77    
Minimum Humidity 57    
Precipitation  
Precipitation 0.00 in - - ()
Sea Level Pressure  
Sea Level Pressure 29.85 in    
Wind  
Wind Speed 8 mph (WNW)    
Max Wind Speed 17 mph    
Max Gust Speed 24 mph    
Visibility 4 miles    
Events Snow    
Averages and records for this station are not official NWS values.
T = Trace of Precipitation, MM = Missing Value Source: NWS Daily Summary

Daily Weather History Graph

Daily Weather History Graph

Search for Another Location

Airport:

Trip Planner

Search our weather history database for the weather conditions in past years. The results will help you decide how hot, cold, wet, or windy it might be!

Date:

Astronomy

Jan. 22, 2014 Rise Set
Actual Time 7:29 AM CST 4:48 PM CST
Civil Twilight 6:56 AM CST 5:21 PM CST
Nautical Twilight 6:20 AM CST 5:57 PM CST
Astronomical Twilight 5:44 AM CST 6:32 PM CST
Moon 11:44 PM CST (1/22) 10:08 AM CST (1/22)
Length of Visible Light 10h 24m
Length of Day
9h 18m
Waning Gibbous, 65% of the Moon is Illuminated
Jan 22
Waning Gibbous
Jan 23
Last Quarter
Jan 30
New
Feb 6
First Quarter
Feb 14
Full

Hourly Weather History & Observations

Time (CST) Temp. Windchill Dew Point Humidity Pressure Visibility Wind Dir Wind Speed Gust Speed Precip Events Conditions
12:15 AM -2.4 °F -12.7 °F -8.5 °F 75% 29.91 in 2.0 mi SSW 4.6 mph - N/A Snow Light Snow
12:35 AM -2.4 °F -14.4 °F -8.5 °F 75% 29.89 in 3.0 mi SSW 5.8 mph - N/A Snow Light Snow
12:55 AM -2.4 °F -12.7 °F -8.5 °F 75% 29.88 in 2.5 mi South 4.6 mph - N/A Snow Light Snow
1:15 AM -2.4 °F -15.8 °F -8.5 °F 75% 29.87 in 2.0 mi SSW 6.9 mph - N/A Snow Light Snow
1:35 AM -2.2 °F -14.2 °F -8.1 °F 76% 29.86 in 2.5 mi SSW 5.8 mph - N/A Snow Light Snow
1:55 AM -1.8 °F -12.0 °F -7.8 °F 76% 29.84 in 2.0 mi South 4.6 mph - N/A Snow Light Snow
2:15 AM -1.7 °F -9.7 °F -7.4 °F 77% 29.83 in 2.0 mi SSW 3.5 mph - N/A Snow Light Snow
2:35 AM -1.3 °F -11.4 °F -6.9 °F 77% 29.83 in 1.8 mi SW 4.6 mph - N/A Snow Light Snow
2:55 AM -1.1 °F -14.3 °F -6.9 °F 77% 29.82 in 2.5 mi SW 6.9 mph - N/A Snow Light Snow
3:15 AM -1.1 °F -14.3 °F -6.9 °F 77% 29.81 in 3.0 mi SW 6.9 mph - N/A Snow Light Snow
3:55 AM -0.9 °F -12.7 °F -6.7 °F 77% 29.80 in 2.0 mi SW 5.8 mph - N/A Snow Light Snow
4:15 AM -0.8 °F -16.2 °F -6.7 °F 76% 29.79 in 3.0 mi SW 9.2 mph - N/A Snow Light Snow
4:35 AM -0.9 °F -15.3 °F -6.9 °F 76% 29.79 in 5.0 mi SW 8.1 mph - N/A Snow Light Snow
4:55 AM -1.3 °F -15.7 °F -7.6 °F 75% 29.77 in 5.0 mi SW 8.1 mph - N/A Snow Light Snow
5:15 AM -1.3 °F -13.1 °F -7.6 °F 75% 29.77 in 7.0 mi SW 5.8 mph - N/A Snow Light Snow
5:35 AM -1.3 °F -14.5 °F -7.6 °F 75% 29.76 in 7.0 mi SW 6.9 mph - N/A Snow Light Snow
5:55 AM -1.5 °F -13.3 °F -7.6 °F 75% 29.76 in 5.0 mi SW 5.8 mph - N/A Snow Light Snow
6:15 AM -1.3 °F -13.1 °F -7.6 °F 75% 29.76 in 5.0 mi SW 5.8 mph - N/A Snow Light Snow
6:35 AM -1.5 °F -13.3 °F -7.4 °F 76% 29.75 in 10.0 mi WSW 5.8 mph - N/A Snow Light Snow
6:55 AM -1.5 °F -13.3 °F -7.4 °F 76% 29.75 in 7.0 mi WSW 5.8 mph - N/A Snow Light Snow
7:15 AM -1.7 °F -13.5 °F -7.4 °F 77% 29.75 in 4.0 mi WSW 5.8 mph - N/A Snow Light Snow
7:35 AM -1.5 °F -13.3 °F -7.4 °F 76% 29.75 in 5.0 mi WSW 5.8 mph - N/A Snow Light Snow
7:55 AM -1.3 °F -13.1 °F -7.6 °F 75% 29.75 in 5.0 mi West 5.8 mph - N/A Snow Light Snow
8:15 AM -1.3 °F -14.5 °F -7.6 °F 75% 29.75 in 4.0 mi West 6.9 mph - N/A Snow Light Snow
8:35 AM -1.3 °F -14.5 °F -8.3 °F 72% 29.76 in 3.0 mi WNW 6.9 mph - N/A Snow Light Snow
8:55 AM -1.3 °F -15.7 °F -8.5 °F 72% 29.76 in 5.0 mi WNW 8.1 mph - N/A Snow Light Snow
9:15 AM -1.1 °F -16.6 °F -8.5 °F 71% 29.76 in 3.0 mi NW 9.2 mph - N/A Snow Light Snow
9:35 AM -0.9 °F -16.4 °F -8.9 °F 69% 29.76 in 5.0 mi WNW 9.2 mph - N/A Snow Light Snow
9:55 AM -0.6 °F -16.9 °F -9.2 °F 67% 29.76 in 5.0 mi NW 10.4 mph - N/A   Haze
10:15 AM -0.4 °F - -9.0 °F 67% 29.76 in 4.0 mi Calm Calm - N/A   Haze
10:35 AM 0.1 °F -16.0 °F -9.2 °F 65% 29.76 in 7.0 mi NW 10.4 mph 16.1 mph N/A   Overcast
10:55 AM 0.3 °F -16.7 °F -8.7 °F 66% 29.76 in 3.0 mi NW 11.5 mph - N/A   Haze
11:15 AM 0.3 °F -14.8 °F -8.9 °F 65% 29.76 in 7.0 mi NNW 9.2 mph - N/A   Overcast
11:35 AM 0.7 °F -18.5 °F -9.9 °F 61% 29.76 in 4.0 mi NW 15.0 mph 19.6 mph N/A   Haze
11:55 AM 1.0 °F -15.8 °F -9.8 °F 61% 29.76 in 4.0 mi NW 11.5 mph 18.4 mph N/A   Haze
12:15 PM 0.5 °F -18.0 °F -7.6 °F 69% 29.76 in 0.8 mi NW 13.8 mph - N/A Snow Light Snow
12:35 PM 1.0 °F -18.7 °F -7.6 °F 67% 29.77 in 1.2 mi NW 16.1 mph - N/A Snow Light Snow
12:55 PM 0.5 °F -18.0 °F -8.5 °F 66% 29.77 in 1.2 mi NW 13.8 mph 21.9 mph N/A Snow Light Snow
1:15 PM 0.3 °F -19.6 °F -8.5 °F 66% 29.78 in 1.5 mi NW 16.1 mph - N/A Snow Light Snow
1:35 PM 0.3 °F -17.5 °F -10.3 °F 61% 29.79 in 7.0 mi NW 12.7 mph 17.3 mph N/A   Overcast
1:55 PM 0.3 °F -20.2 °F -11.7 °F 57% 29.79 in 7.0 mi NNW 17.3 mph 20.7 mph N/A   Mostly Cloudy
2:15 PM -0.4 °F -18.4 °F -10.3 °F 63% 29.80 in 3.0 mi NW 12.7 mph 21.9 mph N/A   Haze
2:35 PM 0.3 °F -17.5 °F -10.3 °F 61% 29.80 in 7.0 mi NW 12.7 mph 20.7 mph N/A   Overcast
2:55 PM 0.3 °F -15.8 °F -10.5 °F 60% 29.81 in 3.0 mi NW 10.4 mph 17.3 mph N/A Snow Light Snow
3:15 PM 0.1 °F -16.9 °F -9.4 °F 64% 29.82 in 2.5 mi NW 11.5 mph 19.6 mph N/A Snow Light Snow
3:35 PM 0.3 °F -15.8 °F -8.5 °F 66% 29.84 in 3.0 mi NW 10.4 mph 17.3 mph N/A Snow Light Snow
3:55 PM 0.5 °F -15.6 °F -7.8 °F 68% 29.84 in 3.0 mi NW 10.4 mph - N/A Snow Light Snow
4:15 PM 0.3 °F -13.8 °F -8.0 °F 68% 29.86 in 10.0 mi WNW 8.1 mph - N/A   Overcast
4:35 PM 0.3 °F -14.8 °F -7.6 °F 69% 29.87 in 2.5 mi WNW 9.2 mph - N/A Snow Light Snow
4:55 PM 0.3 °F -15.8 °F -6.3 °F 74% 29.88 in 2.0 mi NW 10.4 mph - N/A Snow Light Snow
5:15 PM 0.1 °F -16.9 °F -6.2 °F 75% 29.89 in 2.5 mi NW 11.5 mph - N/A Snow Light Snow
5:35 PM 0.3 °F -17.5 °F -8.0 °F 68% 29.90 in 10.0 mi NNW 12.7 mph - N/A   Overcast
5:55 PM -0.4 °F -19.2 °F -8.1 °F 70% 29.91 in 10.0 mi NNW 13.8 mph 19.6 mph N/A   Scattered Clouds
6:15 PM -0.4 °F -18.4 °F -7.6 °F 72% 29.92 in 4.0 mi NNW 12.7 mph 17.3 mph N/A   Haze
6:35 PM -0.6 °F -18.6 °F -7.6 °F 72% 29.93 in 5.0 mi NNW 12.7 mph 19.6 mph N/A   Haze
6:55 PM -0.4 °F -21.2 °F -7.6 °F 72% 29.94 in 4.0 mi NNW 17.3 mph 21.9 mph N/A   Haze
7:15 PM -0.4 °F -18.4 °F -8.0 °F 70% 29.94 in 5.0 mi NNW 12.7 mph 19.6 mph N/A   Haze
7:35 PM -0.4 °F -17.6 °F -7.4 °F 72% 29.95 in 3.0 mi NNW 11.5 mph 19.6 mph N/A Snow Light Snow
7:55 PM -0.4 °F -19.2 °F -7.6 °F 72% 29.96 in 4.0 mi NNW 13.8 mph 18.4 mph N/A Snow Light Snow
8:15 PM -0.2 °F -18.2 °F -6.7 °F 74% 29.97 in 2.5 mi NNW 12.7 mph 23.0 mph N/A Snow Light Snow
8:35 PM -0.2 °F -18.2 °F -6.7 °F 74% 29.98 in 3.0 mi NNW 12.7 mph 19.6 mph N/A Snow Light Snow
8:55 PM 0.3 °F -18.3 °F -6.2 °F 74% 29.98 in 2.5 mi NNW 13.8 mph 19.6 mph N/A Snow Light Snow
9:15 PM 0.5 °F -17.3 °F -6.0 °F 74% 29.99 in 2.5 mi North 12.7 mph 18.4 mph N/A Snow Light Snow
9:35 PM 0.5 °F -19.4 °F -6.2 °F 74% 30.00 in 2.0 mi North 16.1 mph 23.0 mph N/A Snow Light Snow
9:55 PM 0.5 °F -18.7 °F -6.7 °F 72% 30.02 in 4.0 mi North 15.0 mph 20.7 mph N/A   Haze
10:15 PM 0.5 °F -19.4 °F -6.7 °F 72% 30.03 in 5.0 mi NNW 16.1 mph 21.9 mph N/A Snow Light Snow
10:35 PM 0.1 °F -20.5 °F -6.9 °F 72% 30.03 in 5.0 mi NNW 17.3 mph 20.7 mph N/A Snow Light Snow
10:55 PM -0.0 °F -19.4 °F -7.1 °F 72% 30.05 in 7.0 mi NNW 15.0 mph 20.7 mph N/A   Scattered Clouds
11:15 PM -0.0 °F -18.7 °F -6.9 °F 73% 30.06 in 5.0 mi NNW 13.8 mph 23.0 mph N/A   Haze
11:35 PM -0.0 °F -19.4 °F -6.9 °F 73% 30.07 in 5.0 mi NNW 15.0 mph 24.2 mph N/A   Haze
11:55 PM -0.4 °F -20.5 °F -7.4 °F 72% 30.08 in 7.0 mi NNW 16.1 mph 21.9 mph N/A   Scattered Clouds